This is the latest recevied weather packets stored in our database for station/object WB4ZUT. If no packets are shown the sender has not sent any weather packets the latest 1 day(s).
| Time | Temp. | Humidity | Pressure | Rain* | Wind** | Luminosity | Snow |
|---|---|---|---|---|---|---|---|
| 1778100250 | 16.67° C | 55% | 1014.9 hPa | 0 mm | - | 315 W/m² | - |
| 1778098735 | 16.67° C | 57% | 1014.8 hPa | 0 mm | - | 596 W/m² | - |
| 1778097825 | 17.78° C | 59% | 1014.8 hPa | 0 mm | - | 551 W/m² | - |
| 1778097521 | 16.67° C | 60% | 1014.7 hPa | 0 mm | - | 855 W/m² | - |
| 1778097219 | 16.67° C | 61% | 1015 hPa | 0 mm | - | 724 W/m² | - |
| 1778096612 | 16.67° C | 61% | 1014.9 hPa | 0 mm | - | 635 W/m² | - |
| 1778094793 | 16.11° C | 61% | 1014.7 hPa | 0 mm | - | 439 W/m² | - |
| 1778094186 | 16.11° C | 58% | 1015 hPa | 0 mm | - | 558 W/m² | - |
| 1778093883 | 16.67° C | 62% | 1014.9 hPa | 0 mm | - | 551 W/m² | - |
| 1778092069 | 16.67° C | 58% | 1014.8 hPa | 0 mm | - | 500 W/m² | - |
| 1778091464 | 16.11° C | 58% | 1014.9 hPa | 0 mm | - | 884 W/m² | - |
| 1778090251 | 16.11° C | 61% | 1015 hPa | 0 mm | - | 786 W/m² | - |
| 1778089342 | 15° C | 63% | 1014.7 hPa | 0 mm | - | 727 W/m² | - |
| 1778088130 | 15° C | 67% | 1014.7 hPa | 0 mm | - | 803 W/m² | - |
| 1778087525 | 15.56° C | 66% | 1015.1 hPa | 0 mm | - | 508 W/m² | - |
| 1778086919 | 14.44° C | 68% | 1015.3 hPa | 0 mm | - | 641 W/m² | - |
| 1778085404 | 13.33° C | 72% | 1015.3 hPa | 0 mm | - | 351 W/m² | - |
| 1778084796 | 12.78° C | 77% | 1015.4 hPa | 0 mm | - | 307 W/m² | - |
| 1778083585 | 12.78° C | 78% | 1015 hPa | 0 mm | - | 247 W/m² | - |
| 1778081539 | 12.22° C | 82% | 1015.3 hPa | 0 mm | - | 190 W/m² | - |
| 1778079419 | 12.78° C | 82% | 1014.8 hPa | 0 mm | - | 241 W/m² | - |
| 1778078207 | 13.33° C | 82% | 1014.1 hPa | 0 mm | - | 397 W/m² | - |
| 1778077905 | 12.78° C | 84% | 1014.2 hPa | 0 mm | - | 636 W/m² | - |
| 1778077301 | 12.78° C | 85% | 1014.2 hPa | 0 mm | - | 343 W/m² | - |
| 1778076091 | 11.67° C | 88% | 1013.8 hPa | 0 mm | - | 379 W/m² | - |
* Rain latest hour (hover to see other rain measurements)
** Current wind speed in m/s (hover to see current wind gust speed)